Location: Bittelbronn
(48.4454°N, 8.5870°E)
Time: 16:52:29
(UTC+00:00)

SL-27 R/B - Pass Details

Date: 23 May 2024
Orbit: 329 x 353 km, 74.7° (Epoch: 16 June)

Event Time Altitude Azimuth Distance (km) Brightness Sun altitude
Exits shadow 02:41:28 11° 237° (WSW) 1,203 3.9 -7.9°
Maximum altitude 02:43:45 28° 298° (WNW) 665 3.1 -7.6°
Drops below altitude 10° 02:46:11 10° 0° (N) 1,269 5.4 -7.3°
Sets 02:48:18 0° 13° (NNE) 2,111 6.8 -7.0°
